Retour au catalogue

STARLINK-34946

ActifCommunicationsVLEO
NORAD 65367·PAYLOAD·🇺🇸 United States

Lancé Aug 28, 2025 depuis Cape Canaveral Space Force Station

Loading…

Prochains Passages (prochaines 24 heures)

TLE

FraisSource: CelesTrak SupGP

Époque: Sep 14, 2026, 23:13 UTC

1 65367C 25190S   26257.96784722 -.00011773  00000+0 -34788-3 0  2571
2 65367  53.1595   5.6464 0001133  72.3781 220.7771 15.34393590    17

Suivez STARLINK-34946 en temps réel avec AllMySat

Download on the App Store